8,
Bemidji, MN
on Sunday, March 3, 2013

Sunday
Previous Day Next Day
Daily Summary
 ActualAverageRecord
Temperature
Mean Temperature °F °F  
Max Temperature 31°F 27°F 53°F (1993)
Min Temperature 14°F 3°F -27°F (2014)
Degree Days
Heating Degree Days 42    
Moisture
Dew Point 9°F   
Average Humidity 53    
Maximum Humidity 73    
Minimum Humidity 40    
Precipitation
Precipitation 0.00 in in in ()
Wind
Wind Speed 8 mph   
Max Wind Speed 16 mph   
Max Gust Speed 20 mph   
Visibility 10 miles   
Events     
Averages and records for this station are not official NWS values.
Key: T is trace of precipitation, MM is missing value
Source: NWS Daily Summary
Seasonal Weather Averages
Time(CST)TemperatureDew PointHumidity Pressure Visibility Wind DirectionWind SpeedGust SpeedPrecipitationEvents Conditions
12:15 AM 23.0°F 7.7°F 52% 30.06 in 10.0 miles SSE 6.9 mph - N/A   Overcast
12:35 AM 23.0°F 7.2°F 51% 30.05 in 10.0 miles SSE 5.8 mph - N/A   Overcast
12:55 AM 23.0°F 7.2°F 51% 30.05 in 10.0 miles SSE 6.9 mph - N/A   Overcast
1:15 AM 22.5°F 8.8°F 56% 30.05 in 10.0 miles SE 3.5 mph - N/A   Overcast
1:55 AM 22.1°F 10.0°F 60% 30.05 in 10.0 miles SE 5.8 mph - N/A   Overcast
2:15 AM 21.9°F 9.3°F 58% 30.05 in 10.0 miles SE 6.9 mph - N/A   Overcast
2:35 AM 21.9°F 9.7°F 59% 30.04 in 10.0 miles SE 5.8 mph - N/A   Overcast
2:55 AM 21.7°F 9.9°F 60% 30.04 in 10.0 miles SSE 6.9 mph - N/A   Overcast
3:15 AM 21.7°F 9.5°F 59% 30.03 in 10.0 miles SSE 6.9 mph - N/A   Overcast
3:35 AM 21.6°F 9.9°F 61% 30.03 in 10.0 miles SE 5.8 mph - N/A   Overcast
3:55 AM 21.2°F 10.8°F 64% 30.03 in 10.0 miles SE 5.8 mph - N/A   Overcast
4:15 AM 20.3°F 10.4°F 66% 30.02 in 10.0 miles SE 6.9 mph - N/A   Overcast
4:35 AM 19.8°F 10.0°F 66% 30.03 in 10.0 miles ESE 5.8 mph - N/A   Overcast
4:55 AM 19.8°F 9.9°F 65% 30.02 in 10.0 miles SE 6.9 mph - N/A   Overcast
5:35 AM 18.3°F 8.6°F 66% 30.02 in 10.0 miles SE 6.9 mph - N/A   Mostly Cloudy
5:55 AM 17.2°F 8.1°F 67% 30.02 in 10.0 miles SE 6.9 mph - N/A   Scattered Clouds
6:15 AM 16.2°F 7.5°F 69% 30.02 in 10.0 miles ESE 5.8 mph - N/A   Clear
6:35 AM 14.9°F 6.8°F 70% 30.02 in 10.0 miles SE 4.6 mph - N/A   Clear
6:55 AM 14.4°F 6.4°F 71% 30.02 in 10.0 miles Calm Calm - N/A   Mostly Cloudy
7:15 AM 14.4°F 7.2°F 73% 30.02 in 10.0 miles SE 4.6 mph - N/A   Overcast
7:35 AM 16.2°F 8.6°F 72% 30.02 in 10.0 miles SE 5.8 mph - N/A   Overcast
7:55 AM 17.8°F 9.0°F 68% 30.01 in 10.0 miles SE 8.1 mph - N/A   Overcast
8:15 AM 18.3°F 9.0°F 67% 30.01 in 10.0 miles SE 6.9 mph - N/A   Overcast
8:35 AM 19.4°F 8.8°F 63% 30.01 in 10.0 miles SE 9.2 mph - N/A   Overcast
8:55 AM 20.3°F 9.3°F 63% 30.01 in 10.0 miles SE 9.2 mph - N/A   Overcast
9:15 AM 21.0°F 9.5°F 61% 30.01 in 10.0 miles SE 10.4 mph - N/A   Overcast
9:55 AM 23.5°F 10.2°F 57% 30.00 in 10.0 miles SE 10.4 mph - N/A   Overcast
10:15 AM 23.9°F 10.2°F 56% 30.00 in 10.0 miles ESE 10.4 mph - N/A   Overcast
10:35 AM 24.3°F 10.0°F 55% 29.99 in 10.0 miles SE 10.4 mph - N/A   Overcast
10:55 AM 24.6°F 10.4°F 55% 29.99 in 10.0 miles SE 10.4 mph - N/A   Overcast
11:15 AM 25.3°F 10.0°F 52% 29.98 in 10.0 miles SE 12.7 mph - N/A   Overcast
11:35 AM 26.8°F 9.9°F 49% 29.97 in 10.0 miles SE 11.5 mph - N/A   Overcast
11:55 AM 28.0°F 9.5°F 46% 29.97 in 10.0 miles SE 11.5 mph - N/A   Scattered Clouds
12:15 PM 28.9°F 9.7°F 45% 29.97 in 10.0 miles ESE 11.5 mph - N/A   Clear
12:35 PM 29.3°F 9.0°F 43% 29.96 in 10.0 miles SE 12.7 mph - N/A   Clear
12:55 PM 29.5°F 8.4°F 41% 29.94 in 10.0 miles SE 15.0 mph - N/A   Clear
1:15 PM 30.0°F 9.1°F 42% 29.94 in 10.0 miles SE 16.1 mph - N/A   Mostly Cloudy
1:35 PM 30.6°F 9.0°F 40% 29.93 in 10.0 miles SSE 16.1 mph 19.6 mph N/A   Overcast
1:55 PM 31.1°F 10.0°F 41% 29.93 in 10.0 miles ESE 12.7 mph - N/A   Overcast
2:15 PM 31.3°F 10.6°F 42% 29.93 in 10.0 miles SE 13.8 mph - N/A   Overcast
3:15 PM 31.5°F 9.9°F 41% 29.93 in 10.0 miles ESE 11.5 mph 18.4 mph N/A   Overcast
3:35 PM 30.9°F 10.2°F 42% 29.93 in 10.0 miles ESE 11.5 mph - N/A   Overcast
3:55 PM 30.7°F 9.3°F 41% 29.93 in 10.0 miles ESE 11.5 mph - N/A   Overcast
4:35 PM 30.2°F 9.9°F 43% 29.92 in 10.0 miles ESE 11.5 mph - N/A   Overcast
4:55 PM 30.0°F 10.2°F 44% 29.92 in 10.0 miles SE 11.5 mph - N/A   Overcast
5:15 PM 29.8°F 10.8°F 45% 29.92 in 10.0 miles SE 11.5 mph 16.1 mph N/A   Overcast
5:55 PM 29.5°F 11.1°F 46% 29.92 in 10.0 miles ESE 11.5 mph - N/A   Overcast
6:15 PM 29.1°F 11.1°F 47% 29.92 in 10.0 miles SE 12.7 mph - N/A   Overcast
6:35 PM 29.1°F 10.9°F 47% 29.93 in 10.0 miles SE 10.4 mph - N/A   Overcast
6:55 PM 28.9°F 10.9°F 47% 29.93 in 10.0 miles SE 10.4 mph - N/A   Overcast
7:15 PM 28.6°F 10.2°F 46% 29.93 in 10.0 miles SE 10.4 mph - N/A   Overcast
7:35 PM 28.2°F 9.7°F 46% 29.93 in 10.0 miles ESE 9.2 mph - N/A   Overcast
7:55 PM 27.9°F 9.9°F 47% 29.93 in 10.0 miles ESE 8.1 mph - N/A   Mostly Cloudy
8:15 PM 27.3°F 8.6°F 45% 29.93 in 10.0 miles ESE 11.5 mph 17.3 mph N/A   Scattered Clouds
8:35 PM 26.6°F 7.7°F 45% 29.93 in 10.0 miles ESE 10.4 mph - N/A   Mostly Cloudy
8:55 PM 26.6°F 7.7°F 45% 29.92 in 10.0 miles ESE 9.2 mph - N/A   Overcast
9:15 PM 26.8°F 7.7°F 45% 29.92 in 10.0 miles ESE 10.4 mph - N/A   Overcast
9:35 PM 27.0°F 7.5°F 44% 29.92 in 10.0 miles ESE 12.7 mph - N/A   Overcast
9:55 PM 27.0°F 6.8°F 43% 29.92 in 10.0 miles ESE 11.5 mph - N/A   Overcast
10:15 PM 26.8°F 7.2°F 44% 29.92 in 10.0 miles ESE 10.4 mph - N/A   Overcast
10:35 PM 26.6°F 7.5°F 45% 29.92 in 10.0 miles ESE 12.7 mph - N/A   Overcast
10:55 PM 26.4°F 7.9°F 46% 29.92 in 10.0 miles ESE 12.7 mph - N/A   Overcast
11:15 PM 26.4°F 8.4°F 47% 29.92 in 10.0 miles ESE 12.7 mph - N/A   Overcast
11:35 PM 26.2°F 8.6°F 47% 29.92 in 10.0 miles ESE 15.0 mph 18.4 mph N/A   Overcast
11:55 PM 25.9°F 9.1°F 49% 29.92 in 10.0 miles ESE 13.8 mph 18.4 mph N/A   Overcast
Astronomy
Sunrise:06:55 AM (CST) Moon Rise:12:14 AM (CST)3/3
Sunset:06:08 PM (CST) Moon Set:09:44 AM (CST)3/3
Moon Phase
Mar. 03 Mar. 04 Mar. 11 Mar. 19 Mar. 27

Copyright © 2014 The Weather Underground, Inc.
8,